Data Viewer
| City | State | Eastern Time | Source | Temp | DewPt | RH | BP | 5 Min Precip | Wind Speed | Wind Dir | 5 Min Wind Max | 5 Min Wind Max Dir |
|---|---|---|---|---|---|---|---|---|---|---|---|---|
| Old Bridge | NJ | 2026-05-02 14:04 | NCAWOS | 35 | 39 | 29.87 | 3 | N | ||||
| Old Bridge | NJ | 2026-05-03 06:09 | NCAWOS | 26 | 46 | 29.88 | 7 | N | ||||
| Old Bridge | NJ | 2026-05-03 08:24 | NCAWOS | 28 | 46 | 29.92 | 9 | NNW | ||||
| Old Bridge | NJ | 2026-05-03 08:14 | NCAWOS | 28 | 46 | 29.92 | 9 | NNW | ||||
| Old Bridge | NJ | 2026-05-03 08:09 | NCAWOS | 28 | 46 | 29.92 | 10 | NNW | ||||
| Old Bridge | NJ | 2026-05-03 08:04 | NCAWOS | 28 | 46 | 29.92 | 7 | NNW | ||||
| Old Bridge | NJ | 2026-05-03 07:24 | NCAWOS | 26 | 46 | 29.91 | 8 | NNW | ||||
| Old Bridge | NJ | 2026-05-03 07:19 | NCAWOS | 28 | 49 | 29.91 | 7 | N | ||||
| Old Bridge | NJ | 2026-05-03 07:14 | NCAWOS | 26 | 46 | 29.91 | 6 | N | ||||
| Old Bridge | NJ | 2026-05-03 07:04 | NCAWOS | 26 | 46 | 29.90 | 8 | N | ||||
| Old Bridge | NJ | 2026-05-03 06:14 | NCAWOS | 26 | 46 | 29.88 | 6 | NNW | ||||
| Old Bridge | NJ | 2026-05-03 06:04 | NCAWOS | 26 | 46 | 29.87 | 6 | NNW | ||||
| Old Bridge | NJ | 2026-05-03 09:09 | NCAWOS | 28 | 43 | 29.92 | 10 | N | ||||
| Old Bridge | NJ | 2026-05-03 05:25 | NCAWOS | 26 | 43 | 29.86 | 6 | N | ||||
| Old Bridge | NJ | 2026-05-03 05:19 | NCAWOS | 26 | 43 | 29.86 | 5 | N | ||||
| Old Bridge | NJ | 2026-05-03 05:14 | NCAWOS | 26 | 46 | 29.86 | 6 | N | ||||
| Old Bridge | NJ | 2026-05-03 05:09 | NCAWOS | 26 | 46 | 29.86 | 3 | N | ||||
| Old Bridge | NJ | 2026-05-03 05:04 | NCAWOS | 26 | 46 | 29.85 | 5 | N | ||||
| Old Bridge | NJ | 2026-05-03 04:23 | NCAWOS | 26 | 43 | 29.85 | 6 | N | ||||
| Old Bridge | NJ | 2026-05-03 04:14 | NCAWOS | 26 | 43 | 29.85 | 5 | N | ||||
| Old Bridge | NJ | 2026-05-03 04:08 | NCAWOS | 28 | 46 | 29.85 | 3 | N | ||||
| Old Bridge | NJ | 2026-05-03 04:04 | NCAWOS | 26 | 43 | 29.85 | 0 | N | ||||
| Old Bridge | NJ | 2026-05-03 09:04 | NCAWOS | 28 | 46 | 29.92 | 8 | N | ||||
| Old Bridge | NJ | 2026-05-03 09:14 | NCAWOS | 28 | 43 | 29.92 | 9 | NW | ||||
| Old Bridge | NJ | 2026-05-03 03:14 | NCAWOS | 26 | 40 | 29.84 | 5 | NNE | ||||
| Old Bridge | NJ | 2026-05-03 11:24 | NCAWOS | 26 | 35 | 29.91 | 9 | NNW | ||||
| Old Bridge | NJ | 2026-05-03 13:14 | NCAWOS | 25 | 32 | 29.90 | 13 | NNW | ||||
| Old Bridge | NJ | 2026-05-03 13:09 | NCAWOS | 25 | 32 | 29.90 | 14 | WNW | ||||
| Old Bridge | NJ | 2026-05-03 13:04 | NCAWOS | 25 | 32 | 29.90 | 10 | WNW | ||||
| Old Bridge | NJ | 2026-05-03 12:34 | NCAWOS | 26 | 35 | 29.91 | 11 | NW | ||||
| Old Bridge | NJ | 2026-05-03 12:24 | NCAWOS | 25 | 32 | 29.91 | 11 | NW | ||||
| Old Bridge | NJ | 2026-05-03 12:19 | NCAWOS | 25 | 32 | 29.91 | 9 | NNW | ||||
| Old Bridge | NJ | 2026-05-03 12:14 | NCAWOS | 25 | 32 | 29.91 | 11 | NW | ||||
| Old Bridge | NJ | 2026-05-03 12:10 | NCAWOS | 25 | 32 | 29.91 | 11 | WNW | ||||
| Old Bridge | NJ | 2026-05-03 12:04 | NCAWOS | 26 | 35 | 29.91 | 7 | WNW | ||||
| Old Bridge | NJ | 2026-05-03 11:19 | NCAWOS | 25 | 32 | 29.91 | 9 | NNW | ||||
| Old Bridge | NJ | 2026-05-03 09:19 | NCAWOS | 28 | 40 | 29.91 | 7 | NNW | ||||
| Old Bridge | NJ | 2026-05-03 11:14 | NCAWOS | 25 | 35 | 29.91 | 9 | N | ||||
| Old Bridge | NJ | 2026-05-03 11:09 | NCAWOS | 26 | 37 | 29.91 | 9 | NW | ||||
| Old Bridge | NJ | 2026-05-03 11:05 | NCAWOS | 26 | 37 | 29.91 | 9 | NW | ||||
| Old Bridge | NJ | 2026-05-03 10:24 | NCAWOS | 26 | 35 | 29.92 | 11 | NNW | ||||
| Old Bridge | NJ | 2026-05-03 10:19 | NCAWOS | 26 | 37 | 29.92 | 10 | N | ||||
| Old Bridge | NJ | 2026-05-03 10:14 | NCAWOS | 26 | 37 | 29.92 | 9 | NNW | ||||
| Old Bridge | NJ | 2026-05-03 10:09 | NCAWOS | 28 | 40 | 29.92 | 10 | WNW | ||||
| Old Bridge | NJ | 2026-05-03 10:05 | NCAWOS | 26 | 37 | 29.92 | 9 | NW | ||||
| Old Bridge | NJ | 2026-05-03 09:29 | NCAWOS | 28 | 40 | 29.91 | 8 | N | ||||
| Old Bridge | NJ | 2026-05-03 09:24 | NCAWOS | 28 | 40 | 29.91 | 9 | NW | ||||
| Old Bridge | NJ | 2026-05-03 03:24 | NCAWOS | 26 | 40 | 29.84 | 5 | NNE | ||||
| Old Bridge | NJ | 2026-05-03 03:09 | NCAWOS | 26 | 40 | 29.84 | 5 | NNE | ||||
| Old Bridge | NJ | 2026-05-02 14:09 | NCAWOS | 34 | 34 | 29.87 | 7 | N | ||||
| Old Bridge | NJ | 2026-05-02 16:24 | NCAWOS | 28 | 27 | 29.83 | 9 | WNW | ||||
| Old Bridge | NJ | 2026-05-02 20:04 | NCAWOS | 30 | 36 | 29.84 | 3 | WNW | ||||
| Old Bridge | NJ | 2026-05-02 19:29 | NCAWOS | 30 | 33 | 29.84 | 0 | N | ||||
| Old Bridge | NJ | 2026-05-02 19:24 | NCAWOS | 28 | 31 | 29.84 | 3 | N | ||||
| Old Bridge | NJ | 2026-05-02 19:04 | NCAWOS | 28 | 29 | 29.84 | 3 | N | ||||
| Old Bridge | NJ | 2026-05-02 18:24 | NCAWOS | 28 | 29 | 29.83 | 6 | NNW | ||||
| Old Bridge | NJ | 2026-05-02 18:03 | NCAWOS | 30 | 31 | 29.83 | 0 | N | ||||
| Old Bridge | NJ | 2026-05-02 17:14 | NCAWOS | 28 | 27 | 29.83 | 8 | NW | ||||
| Old Bridge | NJ | 2026-05-02 17:09 | NCAWOS | 28 | 27 | 29.83 | 6 | WNW | ||||
| Old Bridge | NJ | 2026-05-02 17:05 | NCAWOS | 30 | 29 | 29.82 | 7 | NNW | ||||
| Old Bridge | NJ | 2026-05-02 16:14 | NCAWOS | 30 | 29 | 29.83 | 5 | WNW | ||||
| Old Bridge | NJ | 2026-05-02 21:09 | NCAWOS | 28 | 35 | 29.86 | 3 | NNW | ||||
| Old Bridge | NJ | 2026-05-02 16:04 | NCAWOS | 30 | 29 | 29.83 | 8 | WNW | ||||
| Old Bridge | NJ | 2026-05-02 15:28 | NCAWOS | 32 | 32 | 29.85 | 6 | N | ||||
| Old Bridge | NJ | 2026-05-02 15:23 | NCAWOS | 34 | 32 | 29.85 | 6 | NNW | ||||
| Old Bridge | NJ | 2026-05-02 15:14 | NCAWOS | 32 | 30 | 29.85 | 6 | N | ||||
| Old Bridge | NJ | 2026-05-02 15:09 | NCAWOS | 34 | 32 | 29.85 | 3 | WNW | ||||
| Old Bridge | NJ | 2026-05-02 15:04 | NCAWOS | 32 | 32 | 29.85 | 3 | N | ||||
| Old Bridge | NJ | 2026-05-02 15:00 | NCAWOS | 30 | 29 | 29.86 | 6 | NNW | ||||
| Old Bridge | NJ | 2026-05-02 14:29 | NCAWOS | 34 | 36 | 29.86 | 3 | NNE | ||||
| Old Bridge | NJ | 2026-05-02 14:24 | NCAWOS | 34 | 36 | 29.87 | 5 | NE | ||||
| Old Bridge | NJ | 2026-05-02 21:04 | NCAWOS | 28 | 35 | 29.86 | 0 | N | ||||
| Old Bridge | NJ | 2026-05-02 21:14 | NCAWOS | 28 | 35 | 29.86 | 3 | NNW | ||||
| Old Bridge | NJ | 2026-05-03 03:04 | NCAWOS | 26 | 40 | 29.84 | 5 | N | ||||
| Old Bridge | NJ | 2026-05-03 00:23 | NCAWOS | 28 | 40 | 29.87 | 0 | N | ||||
| Old Bridge | NJ | 2026-05-03 02:24 | NCAWOS | 26 | 37 | 29.84 | 7 | N | ||||
| Old Bridge | NJ | 2026-05-03 02:19 | NCAWOS | 26 | 37 | 29.84 | 5 | N | ||||
| Old Bridge | NJ | 2026-05-03 02:14 | NCAWOS | 26 | 37 | 29.85 | 3 | N | ||||
| Old Bridge | NJ | 2026-05-03 02:09 | NCAWOS | 26 | 37 | 29.85 | 5 | N | ||||
| Old Bridge | NJ | 2026-05-03 02:04 | NCAWOS | 26 | 37 | 29.85 | 5 | N | ||||
| Old Bridge | NJ | 2026-05-03 01:24 | NCAWOS | 26 | 37 | 29.85 | 5 | NNE | ||||
| Old Bridge | NJ | 2026-05-03 01:15 | NCAWOS | 26 | 37 | 29.85 | 3 | NNE | ||||
| Old Bridge | NJ | 2026-05-03 01:04 | NCAWOS | 26 | 37 | 29.86 | 0 | N | ||||
| Old Bridge | NJ | 2026-05-03 00:26 | NCAWOS | 28 | 40 | 29.87 | 0 | N | ||||
| Old Bridge | NJ | 2026-05-03 00:10 | NCAWOS | 30 | 43 | 29.87 | 0 | N | ||||
| Old Bridge | NJ | 2026-05-02 21:19 | NCAWOS | 28 | 35 | 29.86 | 0 | N | ||||
| Old Bridge | NJ | 2026-05-02 23:24 | NCAWOS | 28 | 38 | 29.86 | 3 | NNW | ||||
| Old Bridge | NJ | 2026-05-02 23:19 | NCAWOS | 28 | 38 | 29.86 | 3 | NW | ||||
| Old Bridge | NJ | 2026-05-02 23:14 | NCAWOS | 28 | 38 | 29.86 | 3 | NW | ||||
| Old Bridge | NJ | 2026-05-02 23:09 | NCAWOS | 28 | 38 | 29.86 | 3 | WNW | ||||
| Old Bridge | NJ | 2026-05-02 23:04 | NCAWOS | 28 | 38 | 29.86 | 0 | N | ||||
| Old Bridge | NJ | 2026-05-02 22:24 | NCAWOS | 28 | 35 | 29.87 | 0 | N | ||||
| Old Bridge | NJ | 2026-05-02 22:19 | NCAWOS | 26 | 33 | 29.86 | 0 | N | ||||
| Old Bridge | NJ | 2026-05-02 22:14 | NCAWOS | 28 | 35 | 29.86 | 0 | N | ||||
| Old Bridge | NJ | 2026-05-02 22:09 | NCAWOS | 26 | 33 | 29.87 | 0 | N | ||||
| Old Bridge | NJ | 2026-05-02 22:04 | NCAWOS | 28 | 35 | 29.86 | 0 | N | ||||
| Old Bridge | NJ | 2026-05-03 13:19 | NCAWOS | 25 | 30 | 29.90 | 14 | NNW |
data collection created in 0.016281127929688 (queried in 0.003935) rendered in: 0.00014495849609375

